Weather in Karpathos

Greece     35°35′42″N   27°09′23″E
temp.,
°C
wind,
m/s
gust,
m/s
humid.,
%
clouds,
%
prec.,
mm/h
press.,
hPa
HPBL,
m
9 december, thu
thu923:00+16wnw810604 0.1 10171369
02:00+15wnw68636 0.1 10171104
05:00+15wnw58676 0.0 1018874
08:00+15w46682 0.0 1019706
11:00+17ssw335610 0.0 1020883
14:00+18sw676672 0.0 10191137
17:00+17ssw797037 0.1 1019998
20:00+18ssw7107723 0.1 1020966
10 december, fri
fri1023:00+17ssw8107510 0.1 1020968
02:00+17ssw9117634 0.1 10201062
05:00+17s91075100 0.2 1020985
08:00+17s101275100 0.3 10201085
11:00+18s11137398 0.2 10201253
14:00+18s101372100 0.5 10181295
17:00+17ssw9127114 0.3 10181175
20:00+17ssw911712 0.4 10181129
11 december, sat
sat1123:00+17ssw797045 0.1 10181125
02:00+17ssw6766100 0.1 1018939
05:00+16ssw67675 0.0 1017966
08:00+17s796588 0.0 10171090
11:00+18s9116494 0.0 10171360
14:00+18s9126940 0.0 10161291
17:00+18s1012755 0.1 10151283
20:00+18s1013755 0.1 10161236
12 december, sun
sun1223:00+17s1014751 0.0 10171262
02:00+17s1013730 0.0 10161209
05:00+18s1013740 0.0 10161310
08:00+18s912730 0.0 10161253
11:00+18ssw912700 0.0 10171211
14:00+18ssw912690 0.0 10151285
17:00+17sw7107727 0.3 1015698
20:00+17sw79667 0.3 1016988
13 december, mon
mon1323:00+16sw78703 0.0 1017841
02:00+16wsw56705 0.0 1016683
05:00+16wsw5673100 0.1 1015613
08:00+15wnw2273100 2.0 1015214
11:00+15wnw447026 1.0 1015677
14:00+16wnw57657 1.5 10141081
17:00+15wnw576371 0.2 1014937
20:00+15wnw5762100 0.4 1014956